Weather History for Gary, IN

Change the Weather History Date:

Friday, July 19, 2013

  Actual Average Record
Temperature  
Mean Temperature 86 °F -  
Max Temperature 95 °F 83 °F 97 °F (1977)
Min Temperature 78 °F 64 °F 55 °F (1971)
Cooling Degree Days 22    
Growing Degree Days 36 (Base 50)    
Moisture  
Dew Point 69 °F    
Average Humidity 58    
Maximum Humidity 78    
Minimum Humidity 32    
Precipitation  
Precipitation 0.01 in - - ()
Sea Level Pressure  
Sea Level Pressure 29.88 in    
Wind  
Wind Speed 8 mph (SW)    
Max Wind Speed 26 mph    
Max Gust Speed 34 mph    
Visibility 10 miles    
Events Rain    
Averages and records for this station are not official NWS values.
T = Trace of Precipitation, MM = Missing Value Source: NWS Daily Summary

Daily Weather History Graph

Daily Weather History Graph

Search for Another Location

Airport:

Trip Planner

Search our weather history database for the weather conditions in past years. The results will help you decide how hot, cold, wet, or windy it might be!

Date:

Astronomy

Jul. 19, 2013 Rise Set
Actual Time 5:32 AM CDT 8:19 PM CDT
Civil Twilight 4:59 AM CDT 8:51 PM CDT
Nautical Twilight 4:18 AM CDT 9:32 PM CDT
Astronomical Twilight 3:31 AM CDT 10:19 PM CDT
Moon 5:21 PM CDT (7/19) 2:13 AM CDT (7/19)
Length of Visible Light 15h 52m
Length of Day
14h 47m
Waxing Gibbous, 87% of the Moon is Illuminated
Jul 19
Waxing Gibbous
Jul 22
Full
Jul 29
Last Quarter
Aug 6
New
Aug 14
First Quarter

Hourly Weather History & Observations

Time (CDT) Temp. Heat Index Dew Point Humidity Pressure Visibility Wind Dir Wind Speed Gust Speed Precip Events Conditions
12:15 AM 83.7 °F 89.2 °F 72.1 °F 68% 29.98 in 10.0 mi SW 3.5 mph - N/A   Clear
12:35 AM 83.3 °F 88.4 °F 72.0 °F 68% 29.98 in 10.0 mi SSW 4.6 mph - N/A   Clear
12:55 AM 83.3 °F 88.4 °F 72.0 °F 68% 29.98 in 10.0 mi SSW 4.6 mph - N/A   Clear
1:15 AM 82.6 °F 87.6 °F 72.0 °F 70% 29.97 in 10.0 mi Calm Calm - N/A   Clear
1:35 AM 82.0 °F 86.7 °F 72.0 °F 71% 29.96 in 10.0 mi SSW 4.6 mph - N/A   Clear
1:55 AM 81.7 °F 86.3 °F 71.8 °F 72% 29.96 in 10.0 mi SSW 3.5 mph - N/A   Clear
2:15 AM 81.7 °F 86.3 °F 71.8 °F 72% 29.95 in 10.0 mi SSW 4.6 mph - N/A   Clear
2:35 AM 81.7 °F 86.3 °F 72.0 °F 72% 29.95 in 10.0 mi SSW 4.6 mph - N/A   Clear
2:55 AM 81.5 °F 86.1 °F 72.0 °F 73% 29.94 in 10.0 mi SSW 4.6 mph - N/A   Clear
3:15 AM 81.3 °F 85.8 °F 72.0 °F 73% 29.94 in 10.0 mi Calm Calm - N/A   Clear
3:35 AM 81.0 °F 85.2 °F 72.0 °F 74% 29.93 in 10.0 mi SW 4.6 mph - N/A   Clear
3:55 AM 80.6 °F 84.7 °F 72.0 °F 75% 29.93 in 10.0 mi SSW 4.6 mph - N/A   Clear
4:15 AM 80.6 °F 84.6 °F 71.8 °F 74% 29.93 in 10.0 mi SSW 4.6 mph - N/A   Clear
4:35 AM 80.1 °F 83.8 °F 71.8 °F 76% 29.92 in 10.0 mi SW 5.8 mph - N/A   Clear
4:45 AM 80.6 °F 84.6 °F 71.6 °F 74% 29.92 in 10.0 mi SSW 5.8 mph - N/A   Clear
5:45 AM 80.6 °F 84.6 °F 71.6 °F 74% 29.92 in 10.0 mi SSW 8.1 mph - N/A   Clear
7:45 AM 82.4 °F 87.2 °F 71.6 °F 70% 29.93 in 10.0 mi SSW 8.1 mph - N/A   Clear
8:45 AM 86.0 °F 90.4 °F 69.8 °F 58% 29.94 in 10.0 mi WSW 15.0 mph - N/A   Clear
9:45 AM 89.6 °F 94.7 °F 69.8 °F 52% 29.92 in 10.0 mi WSW 17.3 mph - N/A   Clear
10:45 AM 91.4 °F 95.4 °F 68.0 °F 46% 29.91 in 10.0 mi WSW 19.6 mph - N/A   Clear
11:45 AM 93.2 °F 96.2 °F 66.2 °F 41% 29.90 in 10.0 mi SW 24.2 mph - N/A   Partly Cloudy
12:45 PM 95.0 °F 98.5 °F 66.2 °F 39% 29.87 in 10.0 mi WSW 26.5 mph - N/A   Scattered Clouds
1:45 PM 95.0 °F 98.5 °F 66.2 °F 39% 29.86 in 10.0 mi WSW 23.0 mph 34.5 mph N/A   Mostly Cloudy
2:45 PM 95.0 °F 96.0 °F 62.6 °F 34% 29.83 in 10.0 mi WSW 23.0 mph 34.5 mph N/A   Mostly Cloudy
3:45 PM 95.0 °F 95.2 °F 60.8 °F 32% 29.82 in 10.0 mi WSW 23.0 mph 34.5 mph N/A   Mostly Cloudy
4:45 PM 95.0 °F 97.0 °F 64.4 °F 36% 29.80 in 10.0 mi WSW 23.0 mph 34.5 mph N/A   Scattered Clouds
5:45 PM 93.2 °F 94.9 °F 64.4 °F 38% 29.79 in 10.0 mi WSW 23.0 mph 34.5 mph N/A   Scattered Clouds
6:45 PM 93.2 °F 96.2 °F 66.2 °F 41% 29.79 in 10.0 mi WSW 23.0 mph 34.5 mph N/A   Scattered Clouds
7:45 PM 91.4 °F 93.2 °F 64.4 °F 41% 29.79 in 10.0 mi WSW 13.8 mph 27.6 mph N/A   Partly Cloudy
8:45 PM 89.6 °F 91.1 °F 64.4 °F 43% 29.79 in 10.0 mi WSW 11.5 mph 23.0 mph N/A   Scattered Clouds
9:15 PM 89.2 °F 91.3 °F 65.3 °F 45% 29.80 in 10.0 mi SW 6.9 mph - N/A   Clear
9:35 PM 88.3 °F 90.9 °F 66.4 °F 48% 29.81 in 10.0 mi SSW 3.5 mph - N/A   Clear
9:45 PM 87.8 °F 90.4 °F 66.2 °F 49% 29.81 in 10.0 mi SW 11.5 mph 17.3 mph N/A   Scattered Clouds
9:55 PM 87.3 °F 90.9 °F 68.4 °F 53% 29.82 in 10.0 mi SW 4.6 mph - N/A   Clear
10:15 PM 87.1 °F 91.3 °F 69.3 °F 55% 29.82 in 10.0 mi SW 6.9 mph - N/A   Scattered Clouds
10:35 PM 86.5 °F 91.8 °F 70.5 °F 59% 29.82 in 10.0 mi WSW 4.6 mph - N/A   Mostly Cloudy
10:55 PM 84.7 °F 87.4 °F 66.9 °F 55% 29.83 in 10.0 mi WNW 6.9 mph - N/A   Mostly Cloudy
11:15 PM 82.2 °F 84.6 °F 66.7 °F 59% 29.83 in 7.0 mi West 6.9 mph - 0.01 in Rain Heavy Rain
11:35 PM 78.8 °F - 69.8 °F 74% 29.84 in 10.0 mi Calm Calm - 0.01 in Rain Light Rain
11:55 PM 78.1 °F - 70.7 °F 78% 29.82 in 10.0 mi WSW 4.6 mph - 0.01 in   Clear